Location: Unspecified
(0.0000°N, 0.0000°E)
Time: 06:23:10
(UTC+00:00)

BlueWalker 3 - Pass Details

Date: 31 October 2024
Orbit: 470 x 481 km, 53.2° (Epoch: 10 November)

Event Time Altitude Azimuth Distance (km) Brightness Sun altitude
Exits shadow 04:17:16 66° 358° (N) 514 1.8 -20.9°
Maximum altitude 04:17:40 77° 57° (ENE) 485 1.8 -20.8°
Drops below altitude 10° 04:21:20 10° 143° (SE) 1,632 5.3 -19.9°
Sets 04:23:30 0° 144° (SE) 2,513 6.3 -19.4°
